| time (UTC) | temp F | wind direction | speed MPH | gust MPH | rain 1hr in | rain 24hr in | rain mn in | humidity % | barometer mb |
| 20260504070259 | 102 | 253 | 4.0 | 38.0 | 0.00 | 0.14 | 0.54 | 32 | 1006.0 |
| 20260504060134 | 100 | 294 | 7.0 | 39.0 | 0.00 | 0.14 | 0.54 | 36 | 1008.0 |
| 20260504050647 | 96 | 288 | 10.0 | 39.0 | 0.00 | 0.14 | 0.54 | 42 | 1008.0 |
| 20260504050447 | 96 | 288 | 10.0 | 39.0 | 0.00 | 0.14 | 0.54 | 42 | 1008.0 |
| 20260504050247 | 96 | 288 | 10.0 | 39.0 | 0.00 | 0.14 | 0.54 | 42 | 1008.0 |
| 20260504045847 | 96 | 288 | 10.0 | 39.0 | 0.00 | 0.14 | 0.54 | 43 | 1008.0 |
| 20260504045647 | 96 | 288 | 10.0 | 39.0 | 0.00 | 0.14 | 0.54 | 43 | 1008.0 |
| 20260504045447 | 96 | 288 | 10.0 | 39.0 | 0.00 | 0.14 | 0.54 | 43 | 1008.0 |
| 20260504045247 | 96 | 288 | 10.0 | 39.0 | 0.00 | 0.14 | 0.54 | 43 | 1008.0 |
| 20260504045047 | 96 | 288 | 10.0 | 39.0 | 0.00 | 0.14 | 0.54 | 43 | 1008.0 |
| 20260504044647 | 96 | 288 | 10.0 | 39.0 | 0.00 | 0.14 | 0.54 | 43 | 1008.0 |
| 20260504044447 | 95 | 289 | 10.0 | 39.0 | 0.00 | 0.14 | 0.54 | 45 | 1009.0 |
| 20260504044247 | 95 | 289 | 10.0 | 39.0 | 0.00 | 0.14 | 0.54 | 45 | 1009.0 |
| 20260504044047 | 95 | 289 | 10.0 | 39.0 | 0.00 | 0.14 | 0.54 | 45 | 1009.0 |
| 20260504043847 | 95 | 289 | 10.0 | 39.0 | 0.00 | 0.14 | 0.54 | 45 | 1009.0 |
| 20260504043647 | 95 | 289 | 10.0 | 39.0 | 0.00 | 0.14 | 0.54 | 45 | 1009.0 |
| 20260504043447 | 95 | 289 | 10.0 | 39.0 | 0.00 | 0.14 | 0.54 | 45 | 1009.0 |
| 20260504043247 | 95 | 289 | 10.0 | 39.0 | 0.00 | 0.14 | 0.54 | 45 | 1009.0 |
| 20260504043047 | 95 | 289 | 10.0 | 39.0 | 0.00 | 0.14 | 0.54 | 45 | 1009.0 |
| 20260504042848 | 93 | 291 | 10.0 | 38.0 | 0.00 | 0.14 | 0.54 | 47 | 1009.0 |
| 20260504042447 | 93 | 291 | 10.0 | 38.0 | 0.00 | 0.14 | 0.54 | 47 | 1009.0 |
| 20260504042247 | 93 | 291 | 10.0 | 38.0 | 0.00 | 0.14 | 0.54 | 47 | 1009.0 |
| 20260504042047 | 93 | 291 | 10.0 | 38.0 | 0.00 | 0.14 | 0.54 | 47 | 1009.0 |
| 20260504041847 | 93 | 291 | 10.0 | 38.0 | 0.00 | 0.14 | 0.54 | 47 | 1009.0 |
| 20260504041647 | 93 | 291 | 10.0 | 38.0 | 0.00 | 0.14 | 0.54 | 47 | 1009.0 |
| 20260504041447 | 92 | 289 | 10.0 | 37.0 | 0.00 | 0.14 | 0.54 | 49 | 1009.0 |
| 20260504041247 | 92 | 289 | 10.0 | 37.0 | 0.00 | 0.14 | 0.54 | 49 | 1009.0 |
| 20260504041047 | 92 | 289 | 10.0 | 37.0 | 0.00 | 0.14 | 0.54 | 49 | 1009.0 |
| 20260504040847 | 92 | 289 | 10.0 | 37.0 | 0.00 | 0.14 | 0.54 | 49 | 1009.0 |
| 20260504040447 | 92 | 289 | 10.0 | 37.0 | 0.00 | 0.14 | 0.54 | 49 | 1009.0 |
| 20260504040247 | 92 | 289 | 10.0 | 37.0 | 0.00 | 0.14 | 0.54 | 49 | 1009.0 |
| 20260504040049 | 92 | 289 | 10.0 | 37.0 | 0.00 | 0.14 | 0.54 | 49 | 1009.0 |
| 20260504035847 | 92 | 286 | 10.0 | 36.0 | 0.00 | 0.14 | 0.54 | 51 | 1009.0 |
| 20260504035647 | 92 | 286 | 10.0 | 36.0 | 0.00 | 0.14 | 0.54 | 51 | 1009.0 |
| 20260504035447 | 92 | 286 | 10.0 | 36.0 | 0.00 | 0.14 | 0.54 | 51 | 1009.0 |
| 20260504035247 | 92 | 286 | 10.0 | 36.0 | 0.00 | 0.14 | 0.54 | 51 | 1009.0 |
| 20260504035047 | 92 | 286 | 10.0 | 36.0 | 0.00 | 0.14 | 0.54 | 51 | 1009.0 |
| 20260504034847 | 92 | 286 | 10.0 | 36.0 | 0.00 | 0.14 | 0.54 | 51 | 1009.0 |
| 20260504034648 | 92 | 286 | 10.0 | 36.0 | 0.00 | 0.14 | 0.54 | 51 | 1009.0 |
| 20260504034247 | 91 | 281 | 9.0 | 34.0 | 0.00 | 0.14 | 0.54 | 53 | 1009.0 |
| 20260504034047 | 91 | 281 | 9.0 | 34.0 | 0.00 | 0.14 | 0.54 | 53 | 1009.0 |
| 20260504033847 | 91 | 281 | 9.0 | 34.0 | 0.00 | 0.14 | 0.54 | 53 | 1009.0 |
| 20260504033647 | 91 | 281 | 9.0 | 34.0 | 0.00 | 0.14 | 0.54 | 53 | 1009.0 |
| 20260504033447 | 91 | 281 | 9.0 | 34.0 | 0.00 | 0.14 | 0.54 | 53 | 1009.0 |
| 20260504033247 | 91 | 281 | 9.0 | 34.0 | 0.00 | 0.14 | 0.54 | 53 | 1009.0 |
| 20260504033047 | 91 | 281 | 9.0 | 34.0 | 0.00 | 0.14 | 0.54 | 53 | 1009.0 |
| 20260504032847 | 90 | 275 | 8.0 | 31.0 | 0.00 | 0.14 | 0.54 | 55 | 1009.0 |
| 20260504032647 | 90 | 275 | 8.0 | 31.0 | 0.00 | 0.14 | 0.54 | 55 | 1009.0 |
| 20260504032247 | 90 | 275 | 8.0 | 31.0 | 0.00 | 0.14 | 0.54 | 55 | 1009.0 |
| 20260504032047 | 90 | 275 | 8.0 | 31.0 | 0.00 | 0.14 | 0.54 | 55 | 1009.0 |
| 20260504031847 | 90 | 275 | 8.0 | 31.0 | 0.00 | 0.14 | 0.54 | 55 | 1009.0 |
| 20260504031647 | 90 | 275 | 8.0 | 31.0 | 0.00 | 0.14 | 0.54 | 55 | 1009.0 |
| 20260504031447 | 89 | 270 | 7.0 | 29.0 | 0.00 | 0.14 | 0.54 | 58 | 1009.0 |
| 20260504031247 | 89 | 270 | 7.0 | 29.0 | 0.00 | 0.14 | 0.54 | 58 | 1009.0 |
| 20260504031047 | 89 | 270 | 7.0 | 29.0 | 0.00 | 0.14 | 0.54 | 58 | 1009.0 |
| 20260504030847 | 89 | 270 | 7.0 | 29.0 | 0.00 | 0.14 | 0.54 | 58 | 1009.0 |
| 20260504030647 | 89 | 270 | 7.0 | 29.0 | 0.00 | 0.14 | 0.54 | 58 | 1009.0 |
| 20260504030447 | 89 | 270 | 7.0 | 29.0 | 0.00 | 0.14 | 0.54 | 58 | 1009.0 |
| 20260504030049 | 89 | 270 | 7.0 | 29.0 | 0.00 | 0.14 | 0.54 | 58 | 1009.0 |
| 20260504025847 | 88 | 276 | 6.0 | 27.0 | 0.00 | 0.14 | 0.54 | 60 | 1009.0 |
| 20260504025647 | 88 | 276 | 6.0 | 27.0 | 0.00 | 0.14 | 0.54 | 60 | 1009.0 |
| 20260504025447 | 88 | 276 | 6.0 | 27.0 | 0.00 | 0.14 | 0.54 | 60 | 1009.0 |
| 20260504025247 | 88 | 276 | 6.0 | 27.0 | 0.00 | 0.14 | 0.54 | 60 | 1009.0 |
| 20260504025047 | 88 | 276 | 6.0 | 27.0 | 0.00 | 0.14 | 0.54 | 60 | 1009.0 |
| 20260504024847 | 88 | 276 | 6.0 | 27.0 | 0.00 | 0.14 | 0.54 | 60 | 1009.0 |
| 20260504024647 | 88 | 276 | 6.0 | 27.0 | 0.00 | 0.14 | 0.54 | 60 | 1009.0 |
| 20260504024447 | 87 | 283 | 6.0 | 26.0 | 0.00 | 0.14 | 0.54 | 62 | 1009.0 |
| 20260504024247 | 87 | 283 | 6.0 | 26.0 | 0.00 | 0.14 | 0.54 | 62 | 1009.0 |
| 20260504023847 | 87 | 283 | 6.0 | 26.0 | 0.00 | 0.14 | 0.54 | 62 | 1009.0 |
| 20260504023647 | 87 | 283 | 6.0 | 26.0 | 0.00 | 0.14 | 0.54 | 62 | 1009.0 |
| 20260504023447 | 87 | 283 | 6.0 | 26.0 | 0.00 | 0.14 | 0.54 | 62 | 1009.0 |
| 20260504023247 | 87 | 283 | 6.0 | 26.0 | 0.00 | 0.14 | 0.54 | 62 | 1009.0 |
| 20260504023047 | 87 | 283 | 6.0 | 26.0 | 0.00 | 0.14 | 0.54 | 62 | 1009.0 |
| 20260504022847 | 86 | 292 | 5.0 | 24.0 | 0.00 | 0.14 | 0.54 | 65 | 1008.0 |
| 20260504022647 | 86 | 292 | 5.0 | 24.0 | 0.00 | 0.14 | 0.54 | 65 | 1008.0 |
| 20260504022447 | 86 | 292 | 5.0 | 24.0 | 0.00 | 0.14 | 0.54 | 65 | 1008.0 |
| 20260504022247 | 86 | 292 | 5.0 | 24.0 | 0.00 | 0.14 | 0.54 | 65 | 1008.0 |
| 20260504022049 | 86 | 292 | 5.0 | 24.0 | 0.00 | 0.14 | 0.54 | 65 | 1008.0 |
| 20260504021651 | 86 | 292 | 5.0 | 24.0 | 0.00 | 0.14 | 0.54 | 65 | 1008.0 |
| 20260504021451 | 85 | 298 | 5.0 | 21.0 | 0.00 | 0.14 | 0.54 | 68 | 1008.0 |
| 20260504021251 | 85 | 298 | 5.0 | 21.0 | 0.00 | 0.14 | 0.54 | 68 | 1008.0 |
| 20260504021051 | 85 | 298 | 5.0 | 21.0 | 0.00 | 0.14 | 0.54 | 68 | 1008.0 |
| 20260504020852 | 85 | 298 | 5.0 | 21.0 | 0.00 | 0.14 | 0.54 | 68 | 1008.0 |
| 20260504020451 | 85 | 298 | 5.0 | 21.0 | 0.00 | 0.14 | 0.54 | 68 | 1008.0 |
| 20260504020251 | 85 | 298 | 5.0 | 21.0 | 0.00 | 0.14 | 0.54 | 68 | 1008.0 |
| 20260504020052 | 85 | 298 | 5.0 | 21.0 | 0.00 | 0.14 | 0.54 | 68 | 1008.0 |
| 20260504015851 | 84 | 297 | 4.0 | 18.0 | 0.00 | 0.14 | 0.54 | 68 | 1008.0 |
| 20260504015651 | 84 | 297 | 4.0 | 18.0 | 0.00 | 0.14 | 0.54 | 68 | 1008.0 |
| 20260504015451 | 84 | 297 | 4.0 | 18.0 | 0.00 | 0.14 | 0.54 | 68 | 1008.0 |
| 20260504015251 | 84 | 297 | 4.0 | 18.0 | 0.00 | 0.14 | 0.54 | 68 | 1008.0 |
| 20260504015051 | 84 | 297 | 4.0 | 18.0 | 0.00 | 0.14 | 0.54 | 68 | 1008.0 |
| 20260504014852 | 84 | 297 | 4.0 | 18.0 | 0.00 | 0.14 | 0.54 | 68 | 1008.0 |
| 20260504014451 | 84 | 288 | 4.0 | 12.0 | 0.00 | 0.14 | 0.54 | 70 | 1008.0 |
| 20260504014251 | 84 | 288 | 4.0 | 12.0 | 0.00 | 0.14 | 0.54 | 70 | 1008.0 |
| 20260504014051 | 84 | 288 | 4.0 | 12.0 | 0.00 | 0.14 | 0.54 | 70 | 1008.0 |
| 20260504013851 | 84 | 288 | 4.0 | 12.0 | 0.00 | 0.14 | 0.54 | 70 | 1008.0 |
| 20260504013651 | 84 | 288 | 4.0 | 12.0 | 0.00 | 0.14 | 0.54 | 70 | 1008.0 |
| 20260504013452 | 84 | 288 | 4.0 | 12.0 | 0.00 | 0.14 | 0.54 | 70 | 1008.0 |
| 20260504013251 | 84 | 288 | 4.0 | 12.0 | 0.00 | 0.14 | 0.54 | 70 | 1008.0 |
| 20260504013051 | 84 | 288 | 4.0 | 12.0 | 0.00 | 0.14 | 0.54 | 70 | 1008.0 |
| 20260504012851 | 83 | 280 | 3.0 | 7.0 | 0.00 | 0.14 | 0.54 | 71 | 1008.0 |
| 20260504012451 | 83 | 280 | 3.0 | 7.0 | 0.00 | 0.14 | 0.54 | 71 | 1008.0 |
| 20260504012256 | 83 | 280 | 3.0 | 7.0 | 0.00 | 0.14 | 0.54 | 71 | 1008.0 |
| 20260504012051 | 83 | 280 | 3.0 | 7.0 | 0.00 | 0.14 | 0.54 | 71 | 1008.0 |
| 20260504011851 | 83 | 280 | 3.0 | 7.0 | 0.00 | 0.14 | 0.54 | 71 | 1008.0 |
| 20260504011651 | 83 | 280 | 3.0 | 7.0 | 0.00 | 0.14 | 0.54 | 71 | 1008.0 |
| 20260504011451 | 83 | 270 | 3.0 | 4.0 | 0.00 | 0.14 | 0.54 | 72 | 1008.0 |
| 20260504011251 | 83 | 270 | 3.0 | 4.0 | 0.00 | 0.14 | 0.54 | 72 | 1008.0 |
| 20260504011051 | 83 | 270 | 3.0 | 4.0 | 0.00 | 0.14 | 0.54 | 72 | 1008.0 |
| 20260504010851 | 83 | 235 | 4.0 | 4.0 | 0.00 | 0.14 | 0.54 | 72 | 1008.0 |
| 20260504010651 | 83 | 235 | 4.0 | 4.0 | 0.00 | 0.14 | 0.54 | 72 | 1008.0 |
| 20260504010251 | 83 | 238 | 4.0 | 4.0 | 0.00 | 0.14 | 0.54 | 72 | 1008.0 |
| 20260504010052 | 83 | 238 | 4.0 | 4.0 | 0.00 | 0.14 | 0.54 | 72 | 1008.0 |
| 20260504005851 | 83 | 232 | 4.0 | 4.0 | 0.00 | 0.14 | 0.54 | 72 | 1008.0 |
| 20260504005651 | 83 | 232 | 4.0 | 9.0 | 0.00 | 0.14 | 0.54 | 72 | 1008.0 |
| 20260504005451 | 83 | 232 | 4.0 | 9.0 | 0.00 | 0.14 | 0.54 | 72 | 1008.0 |
| 20260504005251 | 83 | 232 | 4.0 | 9.0 | 0.00 | 0.14 | 0.54 | 72 | 1008.0 |
| 20260504005051 | 83 | 232 | 4.0 | 9.0 | 0.00 | 0.14 | 0.54 | 72 | 1008.0 |
| 20260504004851 | 83 | 232 | 4.0 | 9.0 | 0.00 | 0.14 | 0.54 | 72 | 1008.0 |
| 20260504004651 | 83 | 232 | 4.0 | 9.0 | 0.00 | 0.14 | 0.54 | 72 | 1008.0 |
| 20260504004452 | 83 | 225 | 3.0 | 9.0 | 0.00 | 0.14 | 0.54 | 72 | 1008.0 |
| 20260504004051 | 82 | 225 | 3.0 | 9.0 | 0.00 | 0.14 | 0.54 | 73 | 1008.0 |
| 20260504003852 | 82 | 225 | 3.0 | 9.0 | 0.00 | 0.14 | 0.54 | 73 | 1008.0 |
| 20260504003651 | 82 | 225 | 3.0 | 9.0 | 0.00 | 0.14 | 0.54 | 73 | 1008.0 |
| 20260504003451 | 82 | 225 | 3.0 | 9.0 | 0.00 | 0.14 | 0.54 | 73 | 1008.0 |
| 20260504003252 | 82 | 225 | 3.0 | 9.0 | 0.00 | 0.14 | 0.54 | 73 | 1008.0 |
| 20260504003051 | 82 | 225 | 3.0 | 9.0 | 0.00 | 0.14 | 0.54 | 73 | 1008.0 |
| 20260504002852 | 82 | 210 | 2.0 | 9.0 | 0.00 | 0.14 | 0.54 | 73 | 1007.0 |
| 20260504002651 | 82 | 210 | 2.0 | 9.0 | 0.00 | 0.14 | 0.54 | 73 | 1007.0 |
| 20260504002451 | 82 | 210 | 2.0 | 9.0 | 0.00 | 0.14 | 0.54 | 73 | 1007.0 |
| 20260504002051 | 82 | 210 | 2.0 | 9.0 | 0.00 | 0.14 | 0.54 | 73 | 1007.0 |
| 20260504001851 | 82 | 210 | 2.0 | 9.0 | 0.00 | 0.14 | 0.54 | 73 | 1007.0 |
| 20260504001651 | 82 | 210 | 2.0 | 9.0 | 0.00 | 0.14 | 0.54 | 73 | 1007.0 |
| 20260504001451 | 82 | 201 | 2.0 | 9.0 | 0.00 | 0.14 | 0.03 | 73 | 1007.0 |
| 20260504001251 | 82 | 201 | 2.0 | 9.0 | 0.00 | 0.14 | 0.03 | 73 | 1007.0 |
| 20260504001051 | 82 | 201 | 2.0 | 9.0 | 0.00 | 0.14 | 0.03 | 73 | 1007.0 |
| 20260504000851 | 82 | 201 | 2.0 | 9.0 | 0.00 | 0.14 | 0.03 | 72 | 1007.0 |
| 20260504000651 | 82 | 201 | 2.0 | 9.0 | 0.00 | 0.14 | 0.03 | 72 | 1007.0 |
| 20260504000451 | 82 | 201 | 2.0 | 9.0 | 0.00 | 0.14 | 0.03 | 72 | 1007.0 |
| 20260504000053 | 82 | 201 | 2.0 | 9.0 | 0.00 | 0.14 | 0.03 | 72 | 1007.0 |
| 20260503235851 | 82 | 209 | 3.0 | 10.0 | 0.00 | 0.14 | 0.03 | 71 | 1007.0 |
| 20260503235651 | 82 | 209 | 3.0 | 10.0 | 0.00 | 0.14 | 0.03 | 71 | 1007.0 |
| 20260503235451 | 82 | 209 | 3.0 | 10.0 | 0.00 | 0.14 | 0.03 | 71 | 1007.0 |
| 20260503235251 | 82 | 209 | 3.0 | 10.0 | 0.00 | 0.14 | 0.03 | 71 | 1007.0 |
| 20260503235051 | 82 | 209 | 3.0 | 10.0 | 0.00 | 0.14 | 0.03 | 71 | 1007.0 |
| 20260503234851 | 82 | 209 | 3.0 | 10.0 | 0.00 | 0.14 | 0.03 | 71 | 1007.0 |
| 20260503234651 | 82 | 209 | 3.0 | 10.0 | 0.00 | 0.14 | 0.03 | 71 | 1007.0 |
| 20260503234451 | 82 | 215 | 4.0 | 11.0 | 0.00 | 0.14 | 0.03 | 70 | 1007.0 |
| 20260503234251 | 82 | 215 | 4.0 | 11.0 | 0.00 | 0.14 | 0.03 | 70 | 1007.0 |
| 20260503233851 | 82 | 215 | 4.0 | 11.0 | 0.00 | 0.14 | 0.03 | 70 | 1007.0 |
| 20260503233652 | 82 | 215 | 4.0 | 11.0 | 0.00 | 0.14 | 0.03 | 70 | 1007.0 |
| 20260503233452 | 82 | 215 | 4.0 | 11.0 | 0.00 | 0.14 | 0.03 | 70 | 1007.0 |
| 20260503233252 | 82 | 215 | 4.0 | 11.0 | 0.00 | 0.14 | 0.03 | 70 | 1007.0 |
| 20260503233052 | 82 | 215 | 4.0 | 11.0 | 0.00 | 0.14 | 0.03 | 70 | 1007.0 |
| 20260503232851 | 83 | 222 | 5.0 | 13.0 | 0.00 | 0.14 | 0.03 | 70 | 1007.0 |
| 20260503232651 | 83 | 222 | 5.0 | 13.0 | 0.00 | 0.14 | 0.03 | 70 | 1007.0 |
| 20260503232452 | 83 | 222 | 5.0 | 13.0 | 0.00 | 0.14 | 0.03 | 70 | 1007.0 |
| 20260503232251 | 83 | 222 | 5.0 | 13.0 | 0.00 | 0.14 | 0.03 | 70 | 1007.0 |
| 20260503232052 | 83 | 222 | 5.0 | 13.0 | 0.00 | 0.14 | 0.03 | 70 | 1007.0 |
| 20260503231651 | 83 | 222 | 5.0 | 13.0 | 0.00 | 0.14 | 0.03 | 70 | 1007.0 |
| 20260503231451 | 83 | 220 | 6.0 | 14.0 | 0.00 | 0.14 | 0.03 | 68 | 1007.0 |
| 20260503231251 | 83 | 220 | 6.0 | 14.0 | 0.00 | 0.14 | 0.03 | 68 | 1007.0 |
| 20260503231051 | 83 | 220 | 6.0 | 14.0 | 0.00 | 0.14 | 0.03 | 68 | 1007.0 |
| 20260503230851 | 83 | 220 | 6.0 | 14.0 | 0.00 | 0.14 | 0.03 | 68 | 1007.0 |
| 20260503230651 | 83 | 220 | 6.0 | 14.0 | 0.00 | 0.14 | 0.03 | 68 | 1007.0 |
| 20260503230451 | 83 | 220 | 6.0 | 14.0 | 0.00 | 0.14 | 0.03 | 68 | 1007.0 |
| 20260503230251 | 83 | 220 | 6.0 | 14.0 | 0.00 | 0.14 | 0.03 | 68 | 1007.0 |
| 20260503230052 | 83 | 220 | 6.0 | 14.0 | 0.00 | 0.14 | 0.03 | 68 | 1007.0 |
| 20260503225852 | 83 | 214 | 6.0 | 15.0 | 0.00 | 0.14 | 0.03 | 68 | 1007.0 |
| 20260503225452 | 83 | 214 | 6.0 | 15.0 | 0.00 | 0.14 | 0.03 | 68 | 1007.0 |
| 20260503225252 | 83 | 214 | 6.0 | 15.0 | 0.00 | 0.14 | 0.03 | 68 | 1007.0 |
| 20260503225052 | 83 | 214 | 6.0 | 15.0 | 0.00 | 0.14 | 0.03 | 68 | 1007.0 |
| 20260503224852 | 83 | 214 | 6.0 | 15.0 | 0.00 | 0.14 | 0.03 | 68 | 1007.0 |
| 20260503224651 | 83 | 214 | 6.0 | 15.0 | 0.00 | 0.14 | 0.03 | 68 | 1007.0 |
| 20260503224451 | 83 | 207 | 6.0 | 16.0 | 0.00 | 0.14 | 0.03 | 67 | 1007.0 |
| 20260503224252 | 83 | 207 | 6.0 | 16.0 | 0.00 | 0.14 | 0.03 | 67 | 1007.0 |
| 20260503224052 | 83 | 207 | 6.0 | 16.0 | 0.00 | 0.14 | 0.03 | 67 | 1007.0 |
| 20260503223852 | 83 | 207 | 6.0 | 16.0 | 0.00 | 0.14 | 0.03 | 67 | 1007.0 |
| 20260503223653 | 83 | 207 | 6.0 | 16.0 | 0.00 | 0.14 | 0.03 | 67 | 1007.0 |
| 20260503223252 | 83 | 207 | 6.0 | 16.0 | 0.00 | 0.14 | 0.03 | 67 | 1007.0 |
| 20260503223052 | 83 | 207 | 6.0 | 16.0 | 0.00 | 0.14 | 0.03 | 67 | 1007.0 |
| 20260503222852 | 84 | 198 | 7.0 | 17.0 | 0.00 | 0.14 | 0.03 | 66 | 1007.0 |
| 20260503222652 | 84 | 198 | 7.0 | 17.0 | 0.00 | 0.14 | 0.03 | 66 | 1007.0 |
| 20260503222452 | 84 | 198 | 7.0 | 17.0 | 0.00 | 0.14 | 0.03 | 66 | 1007.0 |
| 20260503222252 | 84 | 198 | 7.0 | 17.0 | 0.00 | 0.14 | 0.03 | 66 | 1007.0 |
| 20260503222052 | 84 | 198 | 7.0 | 17.0 | 0.00 | 0.14 | 0.03 | 66 | 1007.0 |
| 20260503221852 | 84 | 198 | 7.0 | 17.0 | 0.00 | 0.14 | 0.03 | 66 | 1007.0 |
| 20260503221652 | 84 | 198 | 7.0 | 17.0 | 0.00 | 0.14 | 0.03 | 66 | 1007.0 |
| 20260503221452 | 84 | 192 | 8.0 | 18.0 | 0.00 | 0.14 | 0.03 | 65 | 1007.0 |
| 20260503221052 | 84 | 192 | 8.0 | 18.0 | 0.00 | 0.14 | 0.03 | 65 | 1007.0 |
| 20260503220851 | 84 | 192 | 8.0 | 18.0 | 0.00 | 0.14 | 0.03 | 65 | 1007.0 |
| 20260503220651 | 84 | 192 | 8.0 | 18.0 | 0.00 | 0.14 | 0.03 | 65 | 1007.0 |
| 20260503220451 | 84 | 192 | 8.0 | 18.0 | 0.00 | 0.14 | 0.03 | 65 | 1007.0 |
| 20260503220251 | 84 | 192 | 8.0 | 18.0 | 0.00 | 0.14 | 0.03 | 65 | 1007.0 |
| 20260503220054 | 84 | 192 | 8.0 | 18.0 | 0.00 | 0.14 | 0.03 | 65 | 1007.0 |
| 20260503215851 | 84 | 185 | 8.0 | 18.0 | 0.00 | 0.14 | 0.03 | 65 | 1007.0 |
| 20260503215652 | 84 | 185 | 8.0 | 18.0 | 0.00 | 0.14 | 0.03 | 65 | 1007.0 |
| 20260503215451 | 84 | 185 | 8.0 | 18.0 | 0.00 | 0.14 | 0.03 | 65 | 1007.0 |
| 20260503215052 | 84 | 185 | 8.0 | 18.0 | 0.00 | 0.14 | 0.03 | 65 | 1007.0 |
| 20260503214852 | 84 | 185 | 8.0 | 18.0 | 0.00 | 0.14 | 0.03 | 65 | 1007.0 |
| 20260503214652 | 84 | 185 | 8.0 | 18.0 | 0.00 | 0.14 | 0.03 | 65 | 1007.0 |
| 20260503214452 | 84 | 176 | 9.0 | 18.0 | 0.00 | 0.14 | 0.03 | 64 | 1007.0 |
| 20260503214252 | 84 | 176 | 9.0 | 18.0 | 0.00 | 0.14 | 0.03 | 64 | 1007.0 |
| 20260503214054 | 84 | 176 | 9.0 | 18.0 | 0.00 | 0.14 | 0.03 | 64 | 1007.0 |
| 20260503213852 | 84 | 176 | 9.0 | 18.0 | 0.00 | 0.14 | 0.03 | 64 | 1007.0 |
| 20260503213652 | 84 | 176 | 9.0 | 18.0 | 0.00 | 0.14 | 0.03 | 64 | 1007.0 |
| 20260503213452 | 84 | 176 | 9.0 | 18.0 | 0.00 | 0.14 | 0.03 | 64 | 1007.0 |
| 20260503213256 | 84 | 176 | 9.0 | 18.0 | 0.00 | 0.14 | 0.03 | 64 | 1007.0 |
| 20260503213052 | 84 | 176 | 9.0 | 18.0 | 0.00 | 0.14 | 0.03 | 64 | 1007.0 |
| 20260503212852 | 84 | 167 | 9.0 | 18.0 | 0.00 | 0.14 | 0.03 | 64 | 1007.0 |
| 20260503212652 | 84 | 167 | 9.0 | 18.0 | 0.00 | 0.14 | 0.03 | 64 | 1007.0 |
| 20260503212452 | 84 | 167 | 9.0 | 18.0 | 0.00 | 0.14 | 0.03 | 64 | 1007.0 |
| 20260503212252 | 84 | 167 | 9.0 | 18.0 | 0.00 | 0.14 | 0.03 | 64 | 1007.0 |
| 20260503212052 | 84 | 167 | 9.0 | 18.0 | 0.00 | 0.14 | 0.03 | 64 | 1007.0 |
| 20260503211852 | 84 | 167 | 9.0 | 18.0 | 0.00 | 0.14 | 0.03 | 64 | 1007.0 |
| 20260503211653 | 84 | 167 | 9.0 | 18.0 | 0.00 | 0.14 | 0.03 | 64 | 1007.0 |
| 20260503211252 | 85 | 163 | 9.0 | 18.0 | 0.00 | 0.14 | 0.03 | 63 | 1007.0 |
| 20260503211052 | 85 | 163 | 9.0 | 18.0 | 0.00 | 0.14 | 0.03 | 63 | 1007.0 |
| 20260503210852 | 85 | 163 | 9.0 | 18.0 | 0.00 | 0.14 | 0.03 | 63 | 1007.0 |
| 20260503210652 | 85 | 163 | 9.0 | 18.0 | 0.00 | 0.14 | 0.03 | 63 | 1007.0 |
| 20260503210454 | 85 | 163 | 9.0 | 18.0 | 0.00 | 0.14 | 0.03 | 63 | 1007.0 |
| 20260503210252 | 85 | 163 | 9.0 | 18.0 | 0.00 | 0.14 | 0.03 | 63 | 1007.0 |
| 20260503210053 | 85 | 163 | 9.0 | 18.0 | 0.00 | 0.14 | 0.03 | 63 | 1007.0 |
| 20260503205852 | 85 | 164 | 8.0 | 16.0 | 0.00 | 0.14 | 0.03 | 63 | 1007.0 |
| 20260503205652 | 85 | 164 | 8.0 | 16.0 | 0.00 | 0.14 | 0.03 | 63 | 1007.0 |
| 20260503205252 | 85 | 164 | 8.0 | 16.0 | 0.00 | 0.14 | 0.03 | 63 | 1007.0 |
| 20260503205052 | 85 | 164 | 8.0 | 16.0 | 0.00 | 0.14 | 0.03 | 63 | 1007.0 |
| 20260503204852 | 85 | 164 | 8.0 | 16.0 | 0.00 | 0.14 | 0.03 | 63 | 1007.0 |
| 20260503204652 | 85 | 164 | 8.0 | 16.0 | 0.00 | 0.14 | 0.03 | 63 | 1007.0 |
| 20260503204452 | 85 | 162 | 6.0 | 13.0 | 0.00 | 0.14 | 0.03 | 63 | 1007.0 |
| 20260503204252 | 85 | 162 | 6.0 | 13.0 | 0.00 | 0.14 | 0.03 | 63 | 1007.0 |
| 20260503204052 | 85 | 162 | 6.0 | 13.0 | 0.00 | 0.14 | 0.03 | 63 | 1007.0 |
| 20260503203852 | 85 | 162 | 6.0 | 13.0 | 0.00 | 0.14 | 0.03 | 63 | 1007.0 |
| 20260503203652 | 85 | 162 | 6.0 | 13.0 | 0.00 | 0.14 | 0.03 | 63 | 1007.0 |
| 20260503203252 | 85 | 162 | 6.0 | 13.0 | 0.00 | 0.14 | 0.03 | 63 | 1007.0 |
| 20260503203052 | 85 | 162 | 6.0 | 13.0 | 0.00 | 0.14 | 0.03 | 63 | 1007.0 |
| 20260503202852 | 85 | 163 | 4.0 | 11.0 | 0.00 | 0.14 | 0.03 | 63 | 1007.0 |
| 20260503202652 | 85 | 163 | 4.0 | 11.0 | 0.00 | 0.14 | 0.03 | 63 | 1007.0 |
| 20260503202452 | 85 | 163 | 4.0 | 11.0 | 0.00 | 0.14 | 0.03 | 63 | 1007.0 |
| 20260503202252 | 85 | 163 | 4.0 | 11.0 | 0.00 | 0.14 | 0.03 | 63 | 1007.0 |
| 20260503202052 | 85 | 163 | 4.0 | 11.0 | 0.00 | 0.14 | 0.03 | 63 | 1007.0 |
| 20260503201852 | 85 | 163 | 4.0 | 11.0 | 0.00 | 0.14 | 0.03 | 63 | 1007.0 |
| 20260503201652 | 85 | 163 | 4.0 | 11.0 | 0.00 | 0.14 | 0.03 | 63 | 1007.0 |
| 20260503201453 | 85 | 167 | 3.0 | 10.0 | 0.00 | 0.14 | 0.03 | 63 | 1008.0 |
| 20260503201052 | 85 | 167 | 3.0 | 10.0 | 0.00 | 0.14 | 0.03 | 63 | 1008.0 |
| 20260503200852 | 85 | 167 | 3.0 | 10.0 | 0.00 | 0.14 | 0.03 | 63 | 1008.0 |
| 20260503200652 | 85 | 167 | 3.0 | 10.0 | 0.00 | 0.14 | 0.03 | 63 | 1008.0 |
| 20260503200452 | 85 | 167 | 3.0 | 10.0 | 0.00 | 0.14 | 0.03 | 63 | 1008.0 |
| 20260503200252 | 85 | 167 | 3.0 | 10.0 | 0.00 | 0.14 | 0.03 | 63 | 1008.0 |
| 20260503200052 | 85 | 167 | 3.0 | 10.0 | 0.00 | 0.14 | 0.03 | 63 | 1008.0 |
| 20260503195852 | 85 | 189 | 2.0 | 12.0 | 0.00 | 0.14 | 0.03 | 63 | 1008.0 |
| 20260503195652 | 85 | 189 | 2.0 | 12.0 | 0.00 | 0.14 | 0.03 | 63 | 1008.0 |
| 20260503195452 | 85 | 189 | 2.0 | 12.0 | 0.00 | 0.14 | 0.03 | 63 | 1008.0 |
| 20260503195052 | 85 | 189 | 2.0 | 12.0 | 0.00 | 0.14 | 0.03 | 63 | 1008.0 |
| 20260503194852 | 85 | 189 | 2.0 | 12.0 | 0.00 | 0.14 | 0.03 | 63 | 1008.0 |
| 20260503194652 | 85 | 189 | 2.0 | 12.0 | 0.00 | 0.14 | 0.03 | 63 | 1008.0 |
| 20260503194452 | 86 | 259 | 1.0 | 15.0 | 0.00 | 0.14 | 0.03 | 62 | 1008.0 |
| 20260503194252 | 86 | 259 | 1.0 | 15.0 | 0.00 | 0.14 | 0.03 | 62 | 1008.0 |
| 20260503194052 | 86 | 259 | 1.0 | 15.0 | 0.00 | 0.14 | 0.03 | 62 | 1008.0 |
| 20260503193852 | 86 | 259 | 1.0 | 15.0 | 0.00 | 0.14 | 0.03 | 62 | 1008.0 |
| 20260503193652 | 86 | 259 | 1.0 | 15.0 | 0.00 | 0.14 | 0.03 | 62 | 1008.0 |
| 20260503193452 | 86 | 259 | 1.0 | 15.0 | 0.00 | 0.14 | 0.03 | 62 | 1008.0 |
| 20260503193253 | 86 | 259 | 1.0 | 15.0 | 0.00 | 0.14 | 0.03 | 62 | 1008.0 |
| 20260503192852 | 86 | 281 | 3.0 | 18.0 | 0.00 | 0.14 | 0.03 | 62 | 1008.0 |
| 20260503192652 | 86 | 281 | 3.0 | 18.0 | 0.00 | 0.14 | 0.03 | 62 | 1008.0 |
| 20260503192452 | 86 | 281 | 3.0 | 18.0 | 0.00 | 0.14 | 0.03 | 62 | 1008.0 |
| 20260503192252 | 86 | 222 | 5.0 | 18.0 | 0.00 | 0.14 | 0.03 | 62 | 1008.0 |
| 20260503192052 | 86 | 222 | 5.0 | 18.0 | 0.00 | 0.14 | 0.03 | 62 | 1008.0 |
| 20260503191852 | 86 | 222 | 5.0 | 18.0 | 0.00 | 0.14 | 0.03 | 62 | 1008.0 |
| 20260503191652 | 86 | 222 | 5.0 | 18.0 | 0.00 | 0.14 | 0.03 | 62 | 1008.0 |
| 20260503191452 | 87 | 227 | 6.0 | 20.0 | 0.00 | 0.14 | 0.03 | 62 | 1008.0 |
| 20260503191252 | 87 | 227 | 6.0 | 20.0 | 0.00 | 0.14 | 0.03 | 62 | 1008.0 |
| 20260503190852 | 87 | 227 | 6.0 | 20.0 | 0.00 | 0.14 | 0.03 | 62 | 1008.0 |
| 20260503190652 | 87 | 227 | 6.0 | 20.0 | 0.00 | 0.14 | 0.03 | 62 | 1008.0 |
| 20260503190452 | 87 | 227 | 6.0 | 20.0 | 0.00 | 0.14 | 0.03 | 62 | 1008.0 |
| 20260503190252 | 87 | 227 | 6.0 | 20.0 | 0.00 | 0.14 | 0.03 | 62 | 1008.0 |
| 20260503190053 | 87 | 227 | 6.0 | 20.0 | 0.00 | 0.14 | 0.03 | 62 | 1008.0 |
| 20260503185852 | 87 | 223 | 7.0 | 24.0 | 0.00 | 0.12 | 0.00 | 61 | 1008.0 |
| 20260503185652 | 87 | 223 | 7.0 | 24.0 | 0.00 | 0.12 | 0.00 | 61 | 1008.0 |
| 20260503185452 | 87 | 223 | 7.0 | 24.0 | 0.00 | 0.12 | 0.00 | 61 | 1008.0 |
| 20260503185252 | 87 | 223 | 7.0 | 24.0 | 0.00 | 0.12 | 0.00 | 61 | 1008.0 |
| 20260503184852 | 87 | 223 | 7.0 | 24.0 | 0.00 | 0.12 | 0.00 | 61 | 1008.0 |
| 20260503184652 | 87 | 223 | 7.0 | 24.0 | 0.00 | 0.12 | 0.00 | 61 | 1008.0 |
| 20260503184452 | 87 | 219 | 8.0 | 28.0 | 0.00 | 0.12 | 0.00 | 60 | 1008.0 |
| 20260503184252 | 87 | 219 | 8.0 | 28.0 | 0.00 | 0.12 | 0.00 | 60 | 1008.0 |
| 20260503184052 | 87 | 219 | 8.0 | 28.0 | 0.00 | 0.12 | 0.00 | 60 | 1008.0 |
| 20260503183852 | 87 | 219 | 8.0 | 28.0 | 0.00 | 0.12 | 0.00 | 60 | 1008.0 |
| 20260503183652 | 87 | 219 | 8.0 | 28.0 | 0.00 | 0.15 | 0.00 | 60 | 1008.0 |
| 20260503183452 | 87 | 219 | 8.0 | 28.0 | 0.00 | 0.15 | 0.00 | 60 | 1008.0 |
| 20260503183252 | 87 | 219 | 8.0 | 28.0 | 0.00 | 0.15 | 0.00 | 59 | 1008.0 |
| 20260503183052 | 87 | 219 | 8.0 | 28.0 | 0.00 | 0.15 | 0.00 | 59 | 1008.0 |
| 20260503182652 | 88 | 215 | 11.0 | 33.0 | 0.00 | 0.15 | 0.00 | 58 | 1009.0 |
| 20260503182452 | 88 | 215 | 11.0 | 33.0 | 0.00 | 0.15 | 0.00 | 58 | 1009.0 |
| 20260503182252 | 88 | 215 | 11.0 | 33.0 | 0.00 | 0.15 | 0.00 | 58 | 1009.0 |
| 20260503182052 | 88 | 215 | 11.0 | 33.0 | 0.00 | 0.15 | 0.00 | 58 | 1009.0 |
| 20260503181852 | 88 | 215 | 11.0 | 33.0 | 0.00 | 0.15 | 0.00 | 58 | 1009.0 |
| 20260503181652 | 88 | 215 | 11.0 | 33.0 | 0.00 | 0.15 | 0.00 | 58 | 1009.0 |
| 20260503181452 | 88 | 213 | 12.0 | 37.0 | 0.00 | 0.15 | 0.00 | 58 | 1009.0 |
| 20260503181252 | 88 | 213 | 12.0 | 37.0 | 0.00 | 0.15 | 0.00 | 58 | 1009.0 |
| 20260503181052 | 88 | 213 | 12.0 | 37.0 | 0.00 | 0.15 | 0.00 | 58 | 1009.0 |
| 20260503180853 | 88 | 213 | 12.0 | 37.0 | 0.00 | 0.15 | 0.00 | 58 | 1009.0 |
| 20260503174052 | 89 | 211 | 17.0 | 37.0 | 0.00 | 0.15 | 0.00 | 57 | 1009.0 |
| 20260503173852 | 89 | 211 | 17.0 | 37.0 | 0.00 | 0.15 | 0.00 | 57 | 1009.0 |
| 20260503173652 | 89 | 211 | 17.0 | 37.0 | 0.00 | 0.15 | 0.00 | 57 | 1009.0 |
| 20260503173452 | 89 | 211 | 17.0 | 37.0 | 0.00 | 0.15 | 0.00 | 57 | 1009.0 |
| 20260503173252 | 89 | 211 | 17.0 | 37.0 | 0.00 | 0.15 | 0.00 | 57 | 1009.0 |
| 20260503173052 | 89 | 211 | 17.0 | 37.0 | 0.00 | 0.15 | 0.00 | 57 | 1009.0 |
| 20260503172852 | 89 | 210 | 20.0 | 38.0 | 0.00 | 0.15 | 0.00 | 56 | 1009.0 |
| 20260503172652 | 89 | 210 | 20.0 | 38.0 | 0.00 | 0.15 | 0.00 | 56 | 1009.0 |
| 20260503172452 | 89 | 210 | 20.0 | 38.0 | 0.00 | 0.15 | 0.00 | 56 | 1009.0 |
| 20260503172253 | 89 | 210 | 20.0 | 38.0 | 0.00 | 0.15 | 0.00 | 56 | 1009.0 |
| 20260503171852 | 89 | 210 | 20.0 | 38.0 | 0.00 | 0.15 | 0.00 | 56 | 1009.0 |
| 20260503171652 | 89 | 210 | 20.0 | 38.0 | 0.00 | 0.15 | 0.00 | 56 | 1009.0 |
| 20260503171452 | 89 | 209 | 22.0 | 38.0 | 0.00 | 0.15 | 0.00 | 55 | 1009.0 |
| 20260503171252 | 89 | 209 | 22.0 | 38.0 | 0.00 | 0.15 | 0.00 | 55 | 1009.0 |
| 20260503171052 | 89 | 209 | 22.0 | 38.0 | 0.00 | 0.15 | 0.00 | 55 | 1009.0 |
| 20260503170852 | 89 | 209 | 22.0 | 38.0 | 0.00 | 0.15 | 0.00 | 55 | 1009.0 |
| 20260503170652 | 89 | 209 | 22.0 | 38.0 | 0.00 | 0.15 | 0.00 | 55 | 1009.0 |
| 20260503170452 | 89 | 209 | 22.0 | 38.0 | 0.00 | 0.15 | 0.00 | 55 | 1009.0 |
| 20260503170252 | 89 | 209 | 22.0 | 38.0 | 0.00 | 0.15 | 0.00 | 55 | 1009.0 |
| 20260503150643 | 93 | 205 | 20.0 | 65.0 | 0.00 | 0.15 | 0.00 | 46 | 1007.0 |
| 20260503150443 | 93 | 205 | 20.0 | 65.0 | 0.00 | 0.15 | 0.00 | 46 | 1007.0 |
| 20260503150243 | 93 | 205 | 20.0 | 65.0 | 0.00 | 0.15 | 0.00 | 46 | 1007.0 |
| 20260503140207 | 93 | 239 | 39.0 | 70.0 | 0.00 | 0.15 | 0.00 | 43 | 1006.0 |
| 20260503131255 | 100 | 146 | 19.0 | 37.0 | 0.00 | 0.15 | 0.00 | 28 | 1004.0 |
| 20260503131055 | 100 | 146 | 19.0 | 37.0 | 0.00 | 0.15 | 0.00 | 28 | 1004.0 |
| 20260503130855 | 100 | 146 | 19.0 | 36.0 | 0.00 | 0.15 | 0.00 | 28 | 1004.0 |
| 20260503130656 | 100 | 146 | 19.0 | 36.0 | 0.00 | 0.15 | 0.00 | 28 | 1004.0 |
| 20260503130255 | 100 | 146 | 19.0 | 36.0 | 0.00 | 0.15 | 0.00 | 28 | 1004.0 |
| 20260503110655 | 105 | 161 | 13.0 | 35.0 | 0.00 | 0.18 | 0.00 | 22 | 1003.0 |
| 20260503110456 | 105 | 161 | 13.0 | 35.0 | 0.00 | 0.18 | 0.00 | 22 | 1003.0 |
| 20260503110256 | 105 | 161 | 13.0 | 35.0 | 0.00 | 0.18 | 0.00 | 22 | 1003.0 |
| 20260503100256 | 105 | 156 | 7.0 | 36.0 | 0.00 | 0.18 | 0.00 | 23 | 1003.0 |
| 20260503090445 | 105 | 131 | 6.0 | 36.0 | 0.00 | 0.18 | 0.00 | 24 | 1004.0 |
| 20260503090245 | 105 | 131 | 6.0 | 36.0 | 0.00 | 0.18 | 0.00 | 24 | 1004.0 |
| 20260503081245 | 104 | 135 | 3.0 | 32.0 | 0.00 | 0.18 | 0.00 | 26 | 1005.0 |
| 20260503081045 | 104 | 135 | 3.0 | 32.0 | 0.00 | 0.18 | 0.00 | 26 | 1005.0 |
| 20260503080845 | 104 | 135 | 3.0 | 32.0 | 0.00 | 0.18 | 0.00 | 26 | 1005.0 |
| 20260503080645 | 104 | 135 | 3.0 | 32.0 | 0.00 | 0.18 | 0.00 | 26 | 1005.0 |
| 20260503080445 | 104 | 135 | 3.0 | 32.0 | 0.00 | 0.18 | 0.00 | 26 | 1005.0 |
| 20260503080245 | 104 | 135 | 3.0 | 32.0 | 0.00 | 0.18 | 0.00 | 26 | 1005.0 |